[[{"header":{"parameterUnit":"m.s-1","parameterCategory":1,"la1":30.2991,"la2":30.254,"lo1":-89.0895,"lo2":-89.0444,"dy":0.0017,"dx":0.0017,"nx":28,"ny":28,"refTime":"2024-07-02T09:00:00:Z","depth":0,"parameterNumber":2,"parameterNumberName":"U-component_of_WINDS"},"data":[0,0,0,0,0,0,0,0,0,0,0,0,0,0,0,0,0,0,0,0,0,0,0,0,0,0,0,0,0,0,0,0,0,0,0,0,0,0,0,0,0,0,0,0,0,0,0,0,0,0,0,0,0,0,0,0,0,0,2.1061,2.1063,0,2.1218,2.1219,2.1221,2.1224,2.1222,2.122,2.1218,2.1386,2.1392,2.1398,0,0,0,0,0,0,0,0,0,0,0,0,0,2.0772,2.0777,2.1061,2.1063,2.1065,2.1217,2.122,2.1222,2.1224,2.1221,2.1219,2.1217,2.1384,2.1391,2.1399,0,0,0,0,0,0,0,0,0,0,0,0,0,2.091,2.0779,2.1061,2.1084,2.1088,2.1217,2.122,2.1222,2.1224,2.1221,2.1218,2.1216,2.1381,2.1391,2.14,2.1518,0,0,2.1429,2.1433,0,0,0,0,0,0,0,0,2.0902,2.0921,2.1079,2.1083,2.1087,2.1198,2.1179,2.1322,2.1225,2.1173,2.1218,2.1214,2.1326,2.134,2.1376,2.1526,2.1534,2.143,2.1436,2.144,2.1442,0,0,0,0,0,0,0,2.0892,2.0914,2.1123,2.1081,2.1086,2.1089,2.1106,2.1206,2.1265,2.1177,2.1178,2.1196,2.1328,2.1367,2.138,2.1536,2.143,2.1438,2.1444,2.1448,2.179,2.1794,0,0,0,0,0,0,2.0877,2.0906,2.1118,2.1128,2.0985,2.1097,2.1115,2.1166,2.1264,2.1275,2.1198,2.1195,2.1352,2.1369,2.1386,2.153,2.144,2.1449,2.1454,2.1787,2.1791,2.1795,0,0,0,0,0,0,2.0871,2.0896,2.1112,2.1017,2.1045,2.1105,2.1162,2.117,2.1209,2.1279,2.129,2.1227,2.1351,2.1373,2.1485,2.1536,2.1453,2.1462,2.1783,2.1788,2.1793,2.1819,0,0,0,0,0,0,2.0862,2.0894,2.0937,2.1018,2.105,2.1206,2.1165,2.1175,2.1224,2.1222,2.1309,2.1321,2.135,2.147,2.1494,2.1547,2.1469,2.1779,2.1785,2.1791,2.1814,2.1824,2.1833,0,0,0,0,0,2.0852,2.0941,2.094,2.0965,2.1105,2.1209,2.1227,2.1257,2.1229,2.1274,2.1319,2.1318,2.1527,2.1482,2.1509,2.1565,2.1776,2.1784,2.1791,2.1809,2.1822,2.1833,0,0,0,0,0,0,2.0868,2.0952,2.0951,2.1068,2.1131,2.1209,2.1267,2.127,2.1344,2.1339,2.1375,2.1395,2.1506,2.1548,2.1496,2.1685,2.1648,2.1662,2.1653,2.1666,2.1675,2.1662,2.1477,0,0,0,0,0,2.0884,2.0958,2.1029,2.1125,2.1156,2.1206,2.1252,2.1269,2.1337,2.1364,2.1418,2.1485,2.1566,2.1619,2.1697,2.182,2.1839,2.1873,2.1883,2.189,2.1901,2.1968,2.1983,2.182,2.182,2.182,0,0,2.092,2.0975,2.102,2.1129,2.118,2.1258,2.1229,2.1313,2.1371,2.1378,2.1485,2.1527,2.1606,2.1723,2.1778,2.1761,2.195,2.19,2.1905,2.1912,2.1978,2.1993,2.2007,2.1825,2.1824,2.1823,0,0,2.1023,2.1073,2.1157,2.1208,2.1284,2.1317,2.1337,2.1415,2.1441,2.155,2.1556,2.1628,2.1767,2.1821,2.1867,2.1992,2.1993,2.2017,2.2067,2.2133,2.2145,2.2157,2.22,2.2215,2.2028,2.2028,2.2028,0,2.1059,2.1173,2.1201,2.1284,2.1333,2.134,2.1427,2.1476,2.1575,2.1609,2.1589,2.1761,2.1815,2.1945,2.1975,2.2013,2.2038,2.2006,2.2141,2.2153,2.2164,2.2206,2.2222,2.203,2.203,2.203,2.203,0,2.1212,2.1292,2.1352,2.1443,2.1499,2.1584,2.1626,2.1679,2.1692,2.1727,2.1838,2.1902,2.1993,2.2026,2.2041,2.2158,2.2145,2.2133,2.2096,2.2181,2.2221,2.2237,2.2033,2.2033,2.2032,2.2031,0,0,2.1329,2.1434,2.1455,2.1496,2.1581,2.1644,2.173,2.1816,2.186,2.1929,2.2002,2.2119,2.2108,2.216,2.2182,2.2239,2.2332,2.222,2.2222,2.2237,2.2464,2.2471,2.2489,2.2334,2.2337,2.234,2.2457,0,2.144,2.1589,2.1616,2.1747,2.1821,2.183,2.1905,2.1966,2.2002,2.2072,2.2113,2.2194,2.2174,2.2205,2.2262,2.2308,2.2378,2.2301,2.2403,2.2406,2.238,2.251,2.2518,2.2625,2.2473,2.2475,2.2477,0,2.1589,2.1657,2.1794,2.1868,2.19,2.1966,2.2047,2.2113,2.2184,2.2206,2.2264,2.2278,2.237,2.233,2.2457,2.2404,2.2448,2.2477,2.2482,2.2492,2.2445,2.2521,2.266,2.2675,2.2502,2.25,2.2498,0,2.1657,2.1785,2.1882,2.1918,2.2007,2.2053,2.2093,2.216,2.2209,2.2281,2.2314,2.2397,2.2442,2.2507,2.2544,2.2512,2.2668,2.2632,2.2689,2.2688,2.272,2.2717,2.2866,2.2752,2.2752,2.2752,2.2751,0,2.1777,2.186,2.1914,2.1974,2.2068,2.2101,2.2193,2.2233,2.2293,2.2362,2.2377,2.2442,2.2488,2.2561,2.2592,2.2691,2.2713,2.2734,2.274,2.2731,2.2728,2.2759,2.2752,2.2756,2.2755,2.2754,2.2753,0,2.1868,2.1908,2.2015,2.2089,2.211,2.2176,2.2241,2.2301,2.2337,2.2424,2.2447,2.2504,2.259,2.2634,2.2743,2.2764,2.2875,2.2879,2.285,2.2853,2.2907,2.29,2.3079,2.3104,2.2975,2.2976,2.2977,0,2.1941,2.2004,2.2085,2.2131,2.2171,2.2245,2.2295,2.2331,2.2383,2.2467,2.2517,2.2603,2.2674,2.2811,2.2864,2.2947,2.2952,2.3009,2.2965,2.2953,2.2951,2.2945,2.2952,2.3016,2.3017,2.3018,2.3019,0,2.2065,2.2081,2.2151,2.2228,2.2286,2.2349,2.2412,2.2449,2.2496,2.2554,2.264,2.2695,2.2804,2.2889,2.2976,2.302,2.3028,2.3033,2.305,2.304,2.302,2.303,2.2869,2.3028,2.3027,2.3027,2.3026,2.3026,2.2148,2.2204,2.2269,2.2346,2.2397,2.2454,2.2513,2.2556,2.2628,2.2717,2.2735,2.2826,2.2896,2.3013,2.3059,2.3133,2.3121,2.3147,2.3153,2.3158,2.316,2.301,2.315,2.3149,2.3149,2.3149,2.3149,0,2.2271,2.2313,2.2384,2.2469,2.253,2.253,2.2599,2.2651,2.273,2.2793,2.2861,2.2961,2.3044,2.3103,2.3188,2.3236,2.3242,2.3257,2.3253,2.3263,2.3166,2.3142,2.3251,2.3251,2.3251,2.3251,2.3251,2.3251,2.2342,2.2436,2.246,2.258,2.2623,2.271,2.2749,2.2803,2.2853,2.2963,2.3031,2.3068,2.313,2.3219,2.3296,2.3312,2.3342,2.3357,2.3372,2.3281,2.327,2.3259,2.3236,2.3363,2.3364,2.3462,2.3463,2.3464]},{"header":{"parameterUnit":"m.s-1","parameterCategory":1,"la1":30.2991,"la2":30.254,"lo1":-89.0895,"lo2":-89.0444,"dy":0.0017,"dx":0.0017,"nx":28,"ny":28,"refTime":"2024-07-02T09:00:00:Z","depth":0,"parameterNumber":3,"parameterNumberName":"V-component_of_WINDS"},"data":[0,0,0,0,0,0,0,0,0,0,0,0,0,0,0,0,0,0,0,0,0,0,0,0,0,0,0,0,0,0,0,0,0,0,0,0,0,0,0,0,0,0,0,0,0,0,0,0,0,0,0,0,0,0,0,0,0,0,2.4443,2.4443,0,2.4485,2.4486,2.4486,2.4465,2.4464,2.4463,2.4462,2.4499,2.45,2.4502,0,0,0,0,0,0,0,0,0,0,0,0,0,2.4338,2.434,2.4443,2.4443,2.4444,2.4485,2.4486,2.4486,2.4465,2.4464,2.4462,2.4461,2.4498,2.45,2.4503,0,0,0,0,0,0,0,0,0,0,0,0,0,2.4382,2.434,2.4443,2.4439,2.4439,2.4485,2.4486,2.4486,2.4465,2.4464,2.4462,2.4461,2.4497,2.45,2.4503,2.4554,0,0,2.4512,2.4513,0,0,0,0,0,0,0,0,2.4379,2.4386,2.4439,2.4439,2.4439,2.4468,2.4462,2.4509,2.4466,2.4455,2.4462,2.446,2.4489,2.4493,2.4504,2.4556,2.4557,2.4512,2.4514,2.4515,2.4516,0,0,0,0,0,0,0,2.4376,2.4384,2.4459,2.4439,2.444,2.4432,2.4437,2.4471,2.448,2.4456,2.4454,2.446,2.4489,2.4501,2.4505,2.4558,2.4512,2.4515,2.4517,2.4518,2.4652,2.4653,0,0,0,0,0,0,2.4374,2.4381,2.4458,2.4461,2.4405,2.4436,2.4441,2.446,2.448,2.4482,2.4461,2.4459,2.4497,2.4501,2.4506,2.4566,2.4515,2.4518,2.452,2.465,2.4652,2.4654,0,0,0,0,0,0,2.4372,2.4381,2.4456,2.4421,2.443,2.4439,2.4461,2.4462,2.4474,2.4485,2.4485,2.4472,2.4496,2.4502,2.4542,2.4567,2.452,2.4522,2.4648,2.4651,2.4653,2.4687,0,0,0,0,0,0,2.4369,2.4381,2.4402,2.4421,2.4432,2.4494,2.4463,2.4464,2.448,2.4477,2.4495,2.4496,2.4495,2.4538,2.4545,2.457,2.4525,2.4646,2.4649,2.4652,2.4684,2.469,2.4696,0,0,0,0,0,2.4366,2.4408,2.4403,2.4412,2.4459,2.4495,2.4501,2.45,2.4482,2.4502,2.4509,2.4496,2.4564,2.4542,2.455,2.4577,2.4644,2.4648,2.4652,2.4681,2.4689,2.4696,0,0,0,0,0,0,2.4389,2.4411,2.4405,2.4456,2.4474,2.4492,2.4517,2.4509,2.4531,2.4527,2.4524,2.4528,2.457,2.4577,2.4553,2.4626,2.4601,2.4606,2.462,2.4628,2.4634,2.463,2.4527,0,0,0,0,0,2.4401,2.4431,2.4448,2.4491,2.4501,2.4507,2.4523,2.4522,2.4539,2.4546,2.4556,2.4572,2.4596,2.4613,2.4636,2.4685,2.4687,2.4707,2.4713,2.4718,2.4723,2.4748,2.4756,2.4667,2.4667,2.4667,0,0,2.4424,2.444,2.4458,2.4496,2.451,2.4539,2.4514,2.4546,2.4567,2.455,2.459,2.4597,2.4615,2.4659,2.4679,2.4667,2.4748,2.4723,2.4727,2.4729,2.4753,2.4761,2.4769,2.467,2.4669,2.4669,0,0,2.4481,2.4497,2.4534,2.4549,2.4571,2.4576,2.4585,2.4604,2.4609,2.4648,2.4636,2.466,2.4704,2.4716,2.4728,2.4791,2.4779,2.4798,2.483,2.4855,2.4862,2.4868,2.4889,2.4897,2.4803,2.4803,2.4803,0,2.4506,2.4552,2.4554,2.4587,2.4603,2.4592,2.4628,2.4642,2.467,2.468,2.4666,2.472,2.4731,2.4778,2.4793,2.4804,2.4812,2.4796,2.4861,2.4868,2.4873,2.4893,2.4901,2.4805,2.4805,2.4805,2.4805,0,2.4581,2.4613,2.464,2.467,2.4689,2.4723,2.4728,2.4747,2.4744,2.4749,2.4789,2.4802,2.4827,2.4839,2.4835,2.4885,2.4876,2.4862,2.4836,2.4884,2.4902,2.491,2.4808,2.4808,2.4807,2.4806,0,0,2.4653,2.4684,2.4693,2.4706,2.473,2.4754,2.4787,2.4815,2.483,2.4849,2.4876,2.4913,2.49,2.4914,2.4912,2.4933,2.498,2.4916,2.4917,2.4926,2.5034,2.5044,2.5053,2.4973,2.4975,2.4976,2.5032,0,2.471,2.4771,2.4774,2.4828,2.4857,2.4847,2.4876,2.4892,2.4898,2.4922,2.4927,2.4953,2.4935,2.4943,2.4964,2.497,2.5002,2.4966,2.4996,2.4997,2.499,2.5063,2.5073,2.5125,2.504,2.5041,2.5042,0,2.4785,2.4809,2.4868,2.4887,2.4899,2.4926,2.495,2.4974,2.4992,2.4994,2.501,2.5005,2.5037,2.5011,2.5054,2.503,2.5042,2.5047,2.5049,2.505,2.5021,2.5064,2.5142,2.5149,2.5053,2.5053,2.5052,0,2.4829,2.4877,2.4917,2.4929,2.4953,2.4972,2.4982,2.4999,2.5015,2.5036,2.5046,2.507,2.5083,2.51,2.51,2.5082,2.5143,2.5118,2.5144,2.5144,2.5156,2.5155,2.5236,2.5167,2.5167,2.5167,2.5167,0,2.4892,2.4928,2.4938,2.4962,2.5001,2.5003,2.5041,2.505,2.5065,2.509,2.5082,2.5105,2.5105,2.5128,2.5128,2.5163,2.5169,2.517,2.517,2.517,2.517,2.5177,2.5173,2.5169,2.5168,2.5168,2.5168,0,2.4948,2.4956,2.5,2.502,2.5026,2.5054,2.507,2.5092,2.5098,2.513,2.5137,2.5145,2.5172,2.5174,2.5204,2.5205,2.5246,2.5242,2.5241,2.5239,2.5265,2.5262,2.5352,2.5363,2.5288,2.5289,2.529,0,2.4986,2.5014,2.5038,2.5055,2.5068,2.5095,2.5112,2.5115,2.5132,2.5155,2.5174,2.5201,2.5222,2.5264,2.5271,2.5294,2.529,2.532,2.5293,2.5293,2.5288,2.5286,2.5288,2.5324,2.5325,2.5326,2.5326,0,2.5054,2.5057,2.5083,2.511,2.5131,2.5152,2.5172,2.5186,2.5191,2.521,2.5239,2.5255,2.5287,2.5313,2.5335,2.5344,2.5335,2.5335,2.5342,2.5342,2.5339,2.534,2.5253,2.5332,2.5332,2.5331,2.5331,2.5331,2.5101,2.5124,2.5145,2.5174,2.519,2.5209,2.5231,2.5241,2.5265,2.5293,2.5292,2.5323,2.5339,2.5369,2.538,2.5402,2.5392,2.5403,2.5405,2.5407,2.5409,2.5338,2.5407,2.5406,2.5406,2.5406,2.5406,0,2.5166,2.518,2.5207,2.5236,2.5258,2.5251,2.5273,2.5291,2.5319,2.5336,2.5358,2.539,2.5414,2.5424,2.5448,2.5464,2.5461,2.547,2.5468,2.547,2.5418,2.5409,2.5473,2.5473,2.5473,2.5473,2.5473,2.5473,2.5203,2.5243,2.5248,2.5295,2.5307,2.5339,2.5352,2.5368,2.5382,2.5419,2.5441,2.5448,2.5462,2.5487,2.5509,2.5511,2.5519,2.553,2.553,2.5481,2.5474,2.5467,2.5459,2.5532,2.5532,2.558,2.5581,2.5581]}]]